Regional Weather Roundup
Issued by NWS

Home | Current Version | Previous Version | Text Only | Print | Product List | Glossary Off
Versions: 1 2 3 4 5 6 7 8 9 10 11 12 13 14 15 16 17 18 19 20 21 22 23 24 25 26 27 28 29 30 31 32 33 34 35 36 37 38 39 40 41 42 43 44 45 46 47 48 49 50

490
ASUS43 KFSD 231010
RWRSD

WEATHER ROUNDUP FOR SOUTH DAKOTA
NATIONAL WEATHER SERVICE SIOUX FALLS SD
400 AM CST MON JAN 23 2017

NOTE: "FAIR" INDICATES FEW OR NO CLOUDS BELOW 12,000 FEET WITH NO
SIGNIFICANT WEATHER AND/OR OBSTRUCTIONS TO VISIBILITY.


SDZ001>005-009-010-012>017-231100-
NORTHWEST AND NORTH CENTRAL SOUTH DAKOTA

CITY           SKY/WX    TMP DP  RH WIND       PRES   REMARKS
BUFFALO          N/A     17  13  84 SE3       29.66F
FAITH            N/A     24  21  88 NE8       29.77F WCI  15
MOBRIDGE       CLOUDY    29  23  78 NW5       29.80F WCI  24
$$

SDZ012>016-024>037-041>051-057-063-072>074-231100-
SOUTHWEST AND SOUTH CENTRAL SOUTH DAKOTA

CITY           SKY/WX    TMP DP  RH WIND       PRES   REMARKS
RAPID CTY ARPT PTCLDY    21  19  92 E6        29.70F WCI  13
PIERRE         CLOUDY    27  23  85 CALM      29.84S
CUSTER         CLOUDY    24  12  60 CALM      29.65F
ELLSWORTH AFB  CLEAR     23  22  95 CALM      29.69F
PHILIP         FOG       22  20  92 E9        29.79F VSB 1/4 WCI  12
PINE RIDGE     PTCLDY    28  19  69 SE3       29.72F
SPEARFISH      FAIR      27  18  69 S5        29.66F WCI  21
WINNER         FOG       25  23  92 E6        29.84F VSB 1/4 WCI  18
$$

SDZ004>011-016>023-039-040-231100-
NORTHEAST SOUTH DAKOTA

CITY           SKY/WX    TMP DP  RH WIND       PRES   REMARKS
ABERDEEN       CLOUDY    31  24  75 NW3       29.83F
WATERTOWN      CLOUDY    29  26  89 NW12      29.81F WCI  19
BROOKINGS      CLOUDY    30  27  88 NW12      29.83S WCI  20
SISSETON         N/A     33  30  88 NW13      29.82F WCI  24
$$

SDZ017-020-022-023-036>040-048>070-231100-
SOUTHEAST SOUTH DAKOTA

CITY           SKY/WX    TMP DP  RH WIND       PRES   REMARKS
SIOUX FALLS    CLOUDY    31  29  92 NW9       29.86F WCI  23
HURON          CLOUDY    30  26  85 NW5       29.85F WCI  25
CHAMBERLAIN    CLOUDY    31  28  87 CALM      29.86S
MITCHELL       CLOUDY    31  27  85 NW5       29.87F WCI  26
YANKTON        CLOUDY    30  25  80 NW7       29.88F WCI  23
$$

ABBREVIATIONS USED IN REMARKS
   TC - TEMPERATURE IN CELSIUS
  WCI - WIND CHILL INDEX
   HX - HEAT INDEX
  VSB - VISIBILITY





USA.gov is the U.S. government's official web portal to all federal, state and local government web resources and services.